Flag for Germany Past Weather in Pfaffenhofen an der Ilm, Bavaria, Germany — Yesterday and Last 2 Weeks

37 °F


Feels Like: 37 °F
Forecast: 33 / 51 °F
Wind: 2 mph from Southwest

Location: Ingolstadt Airport

Current Time: Oct 22, 2016 at 9:14:25 AM

Latest Report: Oct 22, 2016 at 8:20 AM

Visibility: 2 mi

Pressure: 29.95 "Hg

Humidity: 93%

Dew Point: 36 °F

Location of Pfaffenhofen an der IlmLocation

Past Weather in Pfaffenhofen an der Ilm — Graph


Pfaffenhofen an der Ilm Temperature Yesterday

Maximum temperature yesterday: 48 °F (at 4:20 PM)
Minimum temperature yesterday: 39 °F (at 10:20 PM)
Average temperature yesterday: 44 °F

High & Low Weather Summary for the Past Weeks

High66 °F (Oct 16, 3:20 PM)100% (Oct 9, 1:20 AM)30.24 "Hg (Oct 9, 1:20 AM)
Low32 °F (Oct 10, 3:20 AM)54% (Oct 9, 1:20 PM)29.71 "Hg (Oct 14, 8:20 PM)
Average46 °F85%30.06 "Hg
* Reported Oct 7 7:20 AM — Oct 22 7:20 AM, Pfaffenhofen an der Ilm, Weather by CustomWeather, © 2016

Note: Actual official high and low records may vary slightly from our data, if they occured in-between our weather recording intervals... More about our weather records


Pfaffenhofen an der Ilm Weather History for the Previous 24 Hours

Scroll right to see more
Time TempWeatherWind HumidityBarometerVisibility
7:20 AM
Sat, Oct 22
37 °FChilly.No wind93%29.95 "Hg1 mi
6:20 AM37 °FChilly.1 mph93%29.95 "Hg1 mi
5:20 AM37 °FChilly.3 mph93%29.95 "Hg3 mi
4:20 AM41 °FQuite cool.2 mph93%29.98 "Hg3 mi
3:20 AM41 °FQuite cool.2 mph93%29.98 "Hg3 mi
2:20 AM41 °FQuite cool.2 mph93%29.98 "Hg3 mi
1:20 AM41 °FQuite cool.2 mph93%29.98 "Hg3 mi
12:20 AM41 °FQuite cool.2 mph93%30.01 "Hg3 mi
11:20 PM
Fri, Oct 21
41 °FQuite cool.2 mph87%30.01 "Hg4 mi
10:20 PM39 °FChilly.3 mph93%30.01 "Hg4 mi
9:20 PM41 °FQuite cool.1 mph93%30.01 "Hg4 mi
8:20 PM43 °FPassing clouds.2 mph87%30.01 "HgN/A
7:20 PM43 °FPassing clouds.2 mph81%29.98 "HgN/A
6:20 PM43 °FPassing clouds.5 mph81%29.98 "HgN/A
6:04 PM43 °FScattered showers. Partly sunny.6 mph81%29.98 "HgN/A
5:20 PM46 °FPartly sunny.5 mph71%29.98 "HgN/A
4:20 PM48 °FPassing clouds.8 mph62%29.95 "HgN/A
3:20 PM46 °FPartly sunny.7 mph66%29.95 "HgN/A
2:20 PM46 °FPartly sunny.7 mph71%29.95 "HgN/A
1:20 PM46 °FPartly sunny.6 mph71%29.95 "HgN/A
12:20 PM45 °FPartly sunny.3 mph81%29.95 "HgN/A
11:20 AM45 °FBroken clouds.6 mph76%29.95 "HgN/A
10:20 AM43 °FPartly sunny.7 mph81%29.95 "HgN/A
9:20 AM43 °FScattered clouds.5 mph81%29.95 "HgN/A
Weather by CustomWeather, © 2016

See weather overviewHow to use our weather pages